Вернуться в каталог

NOAA 16 DEB

АктивенSSO
NORAD 42398·DEBRIS·🇺🇸 United States

Запущен Sep 21, 2000 с Vandenberg Space Force Base

Loading…

Ближайшие Пролёты (ближайшие 24 часа)

TLE

СвежийSource: Space-Track

Эпоха: Sep 13, 2026, 05:49 UTC

1 42398U 00055SS  26256.24263799  .00001634  00000-0  82224-3 0  9994
2 42398  98.6585 259.1938 0030130 341.1200  18.8855 14.17564330541610

Отслеживайте NOAA 16 DEB в реальном времени с AllMySat

Download on the App Store